Regional Weather Roundup
Issued by NWS

Home | Current Version | Previous Version | Graphics & Text | Print | Product List | Glossary On
Versions: 1 2 3 4 5 6 7 8 9 10 11 12 13 14 15 16 17 18 19 20 21 22 23 24 25 26 27 28 29 30 31 32 33 34 35 36 37 38 39 40 41 42 43 44 45 46 47 48 49 50
000
ASUS45 KPSR 061210
RWRAZ

ARIZONA REGIONAL HOURLY WEATHER ROUNDUP
NATIONAL WEATHER SERVICE PHOENIX AZ
500 AM MST WED MAY 06 2015

NOTE: FAIR INDICATES FEW OR NO CLOUDS BELOW 12,000 FEET WITH NO
SIGNIFICANT WEATHER AND/OR OBSTRUCTIONS TO VISIBILITY.

AZZ001>003-036-061300-
NORTHWEST ARIZONA

CITY           SKY/WX    TMP DP  RH WIND       PRES   REMARKS
BULLHEAD CITY  CLEAR     68  39  34 CALM      29.74S
KINGMAN        PTCLDY    52  36  54 SE10      29.85S
6HR MIN TEMP:  50; 6HR MAX TEMP:  62;

$$

AZZ004>008-015-016-018-061300-
NORTH CENTRAL ARIZONA

CITY           SKY/WX    TMP DP  RH WIND       PRES   REMARKS
GRAND CANYON   MOCLDY    41  39  93 CALM      29.98F
6HR MIN TEMP:  39; 6HR MAX TEMP:  45;

WILLIAMS       PTCLDY    43  37  81 VRB5      30.05F
PRESCOTT       CLEAR     47  37  68 SE3       29.93F
6HR MIN TEMP:  46; 6HR MAX TEMP:  57;

FLAGSTAFF      PTCLDY    34  34 100 CALM      30.01S
6HR MIN TEMP:  34; 6HR MAX TEMP:  42;

PAYSON         CLOUDY    52  45  76 E3        29.98S
PAGE           MOCLDY    55  46  71 S3        29.86S
6HR MIN TEMP:  54; 6HR MAX TEMP:  60; 6HR PCP:  0.01;

$$

AZZ009>014-017-061300-
NORTHEAST ARIZONA

CITY           SKY/WX    TMP DP  RH WIND       PRES   REMARKS
WINSLOW        MOCLDY    50  42  74 CALM      29.93F
6HR MIN TEMP:  50; 6HR MAX TEMP:  55;

SAINT JOHNS    CLOUDY    51  42  71 W8        29.97S
6HR MIN TEMP:  50; 6HR MAX TEMP:  54;

WINDOW ROCK    CLOUDY    47  42  83 SW3       29.98S
6HR MIN TEMP:  47; 6HR MAX TEMP:  49;

SHOW LOW       PTCLDY    45  39  81 S7        30.01S
$$

AZZ023-061300-
GREATER PHOENIX AREA

CITY           SKY/WX    TMP DP  RH WIND       PRES   REMARKS
PHOENIX        PTCLDY    71  50  47 E8        29.79F
6HR MIN TEMP:  71; 6HR MAX TEMP:  78;

LUKE AFB       PTCLDY    65  51  60 CALM      29.79S
6HR MIN TEMP:  65; 6HR MAX TEMP:  74;

DEER VALLEY    PTCLDY    64  50  60 CALM      29.80F
6HR MIN TEMP:  64; 6HR MAX TEMP:  74;

SCOTTSDALE     PTCLDY    67  47  48 CALM      29.83S
6HR MIN TEMP:  67; 6HR MAX TEMP:  76;

MESA-GATEWAY   PTCLDY    64  48  55 E6        29.84S
$$

AZZ027-028-061300-
SOUTHWEST MARICOPA COUNTY AND PINAL COUNTY

CITY           SKY/WX    TMP DP  RH WIND       PRES   REMARKS
CASA GRANDE    MOCLDY    63  45  51 CALM      29.81F
6HR MIN TEMP:  63; 6HR MAX TEMP:  73;

GILA BEND      FAIR      65  43  44 SE2       29.78S
6HR MIN TEMP:  63; 6HR MAX TEMP:  76;

$$

AZZ503-504-507>509-061300-
SOUTHEAST ARIZONA

CITY           SKY/WX    TMP DP  RH WIND       PRES   REMARKS
TUCSON         PTCLDY    62  46  55 SE10      29.89F
6HR MIN TEMP:  62; 6HR MAX TEMP:  70;

DAVIS-MONTHAN  MOCLDY    60  47  62 S8        29.87F
6HR MIN TEMP:  60; 6HR MAX TEMP:  69;

NOGALES        CLEAR     49  39  68 CALM      29.93S
6HR MIN TEMP:  49; 6HR MAX TEMP:  61;

SIERRA VISTA   CLEAR     52  37  56 SW8       29.97S
6HR MIN TEMP:  52; 6HR MAX TEMP:  61;

DOUGLAS        CLEAR     47  33  58 E6        29.96S
6HR MIN TEMP:  44; 6HR MAX TEMP:  57;

SAFFORD        MOCLDY    54  44  69 NE3       29.90R
6HR MIN TEMP:  53; 6HR MAX TEMP:  63;

$$

AZZ020-021-025-026-031-061300-
SOUTHWEST ARIZONA

CITY           SKY/WX    TMP DP  RH WIND       PRES   REMARKS
YUMA           MOCLDY    69  56  62 S6        29.76S
6HR MIN TEMP:  69; 6HR MAX TEMP:  75;

$$

CAZ031-033-041-043-047-048-061-061300-
SOUTHERN CALIFORNIA

CITY           SKY/WX    TMP DP  RH WIND       PRES   REMARKS
DOWNTOWN L.A.  CLOUDY    60  50  69 VRB3      29.90F
6HR MIN TEMP:  58; 6HR MAX TEMP:  60;

L.A. AIRPORT   CLOUDY    59  50  72 E3        29.91S
6HR MIN TEMP:  58; 6HR MAX TEMP:  59;

SAN DIEGO      MOCLDY    61  48  62 SE5       29.92F
6HR MIN TEMP:  61; 6HR MAX TEMP:  62;

BURBANK        CLOUDY    58  47  66 SE5       29.90F
6HR MIN TEMP:  57; 6HR MAX TEMP:  58;

ONTARIO        CLOUDY    56  47  71 W7        29.90F
6HR MIN TEMP:  54; 6HR MAX TEMP:  56;

RIVERSIDE      CLOUDY    56  48  74 NW3       29.91F
6HR MIN TEMP:  55; 6HR MAX TEMP:  57;

PALM SPRINGS   MOCLDY    65  43  44 NW12      29.77R
6HR MIN TEMP:  65; 6HR MAX TEMP:  72;

EL CENTRO NAS  MOCLDY    65  42  43 W17       29.77S
6HR MIN TEMP:  65; 6HR MAX TEMP:  71;

IMPERIAL       MOCLDY    63  44  50 W12       29.74S
6HR MIN TEMP:  61; 6HR MAX TEMP:  70;

BLYTHE         PTCLDY    67  41  38 S10       29.74F
6HR MIN TEMP:  66; 6HR MAX TEMP:  78;

NEEDLES        PTCLDY    71  34  25 S6        29.73F
6HR MIN TEMP:  71; 6HR MAX TEMP:  80;

$$

NVZ020-UTZ003-061300-
SOUTHERN NEVADA-UTAH

CITY           SKY/WX    TMP DP  RH WIND       PRES   REMARKS
LAS VEGAS      PTCLDY    66  41  40 S5        29.72S
6HR MIN TEMP:  66; 6HR MAX TEMP:  77;

SALT LAKE CITY MOCLDY    54  49  83 SE5       29.81F
6HR MIN TEMP:  54; 6HR MAX TEMP:  56; 6HR PCP: TRACE;

$$

NMZ009-TXZ055-061300-
NEW MEXICO-WEST TEXAS

CITY           SKY/WX    TMP DP  RH WIND       PRES   REMARKS
ALBUQUERQUE    CLOUDY    53  44  71 SE7       29.95R
6HR MIN TEMP:  51; 6HR MAX TEMP:  54; 6HR PCP: TRACE;

EL PASO        PTCLDY    62  39  42 S6        29.93S
6HR MIN TEMP:  60; 6HR MAX TEMP:  70;

$$


........................KEY........................
SKY/WX - SKY CONDITION/WEATHER
TMP    - TEMPERATURE IN FAHRENHEIT
DP     - DEW POINT IN FAHRENHEIT
RH     - RELATIVE HUMIDITY IN PERCENT
WIND   - DIRECTION AND SPEED IN MILES PER HOUR (MPH)
VRB    - VARIABLE WIND DIRECTION
PRES   - MEAN SEA LEVEL PRESSURE IN INCHES OF MERCURY
         F - FALLING PRESSURE   R - RISING PRESSURE
         S - STEADY PRESSURE
VSB    - VISIBILITY IN MILES
HX     - HEAT INDEX IN FAHRENHEIT
WCI    - WIND CHILL INDEX IN FAHRENHEIT
TC     - TEMPERATURE IN CELSIUS WHICH IS ALSO KNOWN AS
         TEMPERATURE IN CENTIGRADE
AFB    - AIR FORCE BASE
         LUKE AFB IS LUKE AIR FORCE BASE
         DAVIS-MONTHAN IS DAVIS-MONTHAN AIR FORCE BASE
NAS    - NAVAL AIR STATION
         EL CENTRO NAS IS EL CENTRO NAVAL AIR STATION
N/A    - NOT AVAILABLE




USA.gov is the U.S. government's official web portal to all federal, state and local government web resources and services.